514  
ASUS43 KEAX 230810  
RWREAX  
 
WEATHER ROUNDUP FOR EASTERN KANSAS AND NORTHWEST MISSOURI  
NATIONAL WEATHER SERVICE KANSAS CITY/PLEASANT HILL MO  
300 AM CDT TUE MAY 23 2017  
 
KSZ040-057-103>105-MOZ028-029-037-043-230900-   
..KANSAS CITY METROPOLITAN AREA
 
 
 
CITY SKY/WX TMP DP RH WIND PRES REMARKS
 
K.C. INTL FOG 55 55 100 SW5 29.87S VSB 1/2  
K.C. DOWNTOWN CLOUDY 57 56 96 S3 29.86F  
LEES SUMMIT CLOUDY 56 56 100 SW8 29.88S FOG  
OLATHE - IXD CLOUDY 55 55 100 SE5 29.88S FOG  
OLATHE - OJC CLOUDY 54 54 100 S6 29.88S FOG  
LAWRENCE FOG 54 54 100 CALM 29.88F VSB 1/4  
 

 
 
MOZ001>008-011>017-020>025-030>033-038>040-044>046-053-054-230900-   
..NORTHERN AND CENTRAL MISSOURI
 
 
 
CITY SKY/WX TMP DP RH WIND PRES REMARKS
 
ST. JOSEPH CLOUDY 56 56 100 SW5 29.87S  
WARRENSBURG CLOUDY 55 54 94 CALM 29.86F  
WHITEMAN AFB DRIZZLE 55 55 100 E5 29.84F  
CLINTON CLOUDY 57 54 88 E5 29.86F  
SEDALIA LGT RAIN 57 57 100 E8 29.86F  
WARSAW NOT AVBL  
CHILLICOTHE N/A 56 55 97 SW3 29.86F  
KIRKSVILLE CLOUDY 57 56 96 SW3 29.85F  
 

 
 
MOZ041-047>049-056>058-063>065-088>090-097-230900-   
..EASTERN AND SOUTHERN MISSOURI
 
 
 
CITY SKY/WX TMP DP RH WIND PRES REMARKS
 
ST. LOUIS INTL CLOUDY 63 57 81 E7 29.87F  
SPIRIT OF STL CLOUDY 62 58 86 NE5 29.85F  
COLUMBIA CLOUDY 57 55 93 NE7 29.86F  
JEFFERSON CITY CLOUDY 61 54 77 CALM 29.85F  
ROLLA CLOUDY 56 54 93 S3 29.85F  
OSAGE BEACH CLOUDY 58 55 90 CALM 29.85F  
SPRINGFIELD RAIN 59 54 83 W3 29.86S  
BRANSON CLOUDY 59 50 72 SW3 29.87F  
JOPLIN CLOUDY 63 59 87 W3 29.87F  
WEST PLAINS MOCLDY 58 52 80 SW3 29.87F  
 

 
 
IAZ060-094-KSZ022-034>040-054-083-096-NEZ052-066-093-230900-    
..KANSAS...SOUTHEAST NEBRASKA AND IOWA
 
 
 
CITY SKY/WX TMP DP RH WIND PRES REMARKS
 
TOPEKA CLOUDY 56 56 100 W3 29.88S FOG  
MANHATTAN CLOUDY 57 51 80 VRB7G18 29.92S  
EMPORIA FOG 54 54 100 W3 29.91R VSB 3/4  
CHANUTE CLEAR 57 54 89 NW6 29.88S  
WICHITA CLOUDY 56 56 100 NW5 29.90F  
OMAHA MOCLDY 51 45 79 NW9 29.90F  
LINCOLN CLOUDY 53 46 77 NW7 29.95F  
FALLS CITY CLOUDY 54 51 90 NW8 29.88S  
LAMONI FOG 52 51 97 SW5 29.84F VSB 3/4  
DES MOINES PTCLDY 54 50 86 NW10 29.82F  
 

 
 
 
 
CLICK HERE TO GO TO PREVIOUS BULLETINS.

The Nexlab MO Page
The Nexlab KS Page Main Text Page